Date,TemperatureHighF,TemperatureAvgF,TemperatureLowF,DewpointHighF,DewpointAvgF,DewpointLowF,HumidityHigh,HumidityAvg,HumidityLow,PressureMaxIn,PressureMinIn,WindSpeedMaxMPH,WindSpeedAvgMPH,GustSpeedMaxMPH,PrecipitationSumIn
2013-2-1,20,10,1,18,4,-4,92,77,68,30.46,30.20,22,11,31,0.00
2013-2-2,27,21,15,25,17,10,93,86,76,30.19,30.04,17,8,26,0.00
2013-2-3,28,23,17,21,18,14,95,83,68,30.13,29.99,22,9,31,0.00
2013-2-4,36,27,18,29,22,16,91,84,74,29.99,29.80,14,4,22,0.00
2013-2-5,40,29,17,34,26,15,92,87,78,30.11,29.84,19,8,28,0.00
2013-2-6,44,35,24,35,30,23,96,83,66,30.20,30.03,17,5,26,0.00
2013-2-7,37,36,33,36,34,32,98,94,84,30.06,29.85,17,8,28,0.61
2013-2-8,33,28,26,32,25,22,94,88,85,30.39,30.03,16,4,24,0.00
2013-2-9,37,31,27,32,28,24,90,86,80,30.38,30.01,16,9,29,0.00
2013-2-10,48,42,36,47,39,32,97,92,72,30.03,29.45,26,15,40,0.47
2013-2-11,40,33,30,34,27,25,83,77,72,30.10,29.58,32,22,49,0.00
2013-2-12,38,31,27,29,26,24,88,81,66,30.14,29.93,14,7,21,0.00
2013-2-13,45,35,24,36,30,23,94,83,66,29.93,29.74,14,5,21,0.00
2013-2-14,40,36,32,34,32,29,93,84,75,30.01,29.69,22,11,34,0.00
2013-2-15,34,27,20,31,19,15,93,73,49,30.24,30.01,21,13,29,0.00
2013-2-16,28,20,12,18,12,8,86,73,59,30.24,30.16,17,9,26,0.00
2013-2-17,37,25,12,25,17,9,87,72,55,30.22,29.90,18,7,29,0.00
2013-2-18,53,38,22,47,33,19,96,81,65,29.89,29.43,29,16,42,0.33
2013-2-19,23,17,12,20,12,8,88,80,70,30.29,29.76,31,24,44,0.00
2013-2-20,20,13,5,16,8,0,88,81,72,30.44,30.30,19,8,28,0.00
2013-2-21,29,22,14,25,19,11,95,87,81,30.39,29.89,15,7,32,0.00
2013-2-22,32,29,25,31,26,22,97,91,84,29.98,29.78,19,9,27,0.04
2013-2-23,29,24,20,23,20,17,87,82,76,30.01,29.96,13,7,20,0.01
2013-2-24,39,27,14,28,22,12,93,80,62,30.13,30.00,7,3,11,0.02
2013-2-25,42,34,25,35,30,23,93,84,70,30.12,29.85,13,5,24,0.00
2013-2-26,35,33,31,32,31,29,98,93,77,29.85,29.48,16,8,34,0.09
2013-2-27,32,31,30,31,30,29,98,97,96,29.79,29.58,0,0,1,0.03
2013-2-28,31,31,31,31,30,30,97,97,97,30.08,30.07,7,5,9,0.03